Погода в Светлограде

Погода в Светлограде : погода сейчас, прогноз погоды и архив. Всё, что Вы хотите узнать о погоде в Светлограде!

Хотите узнать прогноз погоды в Светлограде? Тогда Вам сюда: Погода в Светлограде

Поиск расширенной информации на нашем сайте:

Другие новости

Новости СМИ2

Главная страница сайта

Новости сайта

03.07.2017

Напоминаем, что на нашем специализированном сайте Метеоцентр.Азия вы можете получить высокодетализированные автоматические прогнозы погоды по пунктам России, СНГ и мира в авиационном формате (включающие направление и скорость ветра, видимость, явления погоды, количество и форму облачности, нижнюю и верхнюю границу облачности).


Погода в Светлограде - сегодня

Время (UTC), дата Ветер
(°,м/с) 
Видим.   Явления Облачность Т
(°С)
Тd
(°С)
f(%) Тe
(°С)
Pmin
(гПа)
dP
(гПа)
Po
(мм)
O2
(г/м3)
Тmin Tmax R s Состояние
почвы
09 20.01.18 210 (ЮЗ) 20000 м    6/6 1000 м 
[Sc]
+4.8 -1.7 63 +4  1021.6  -0.3  753  298           
12 20.01.18 180 (Ю) 20000 м    8/0 верхняя 
[Ci sp]
+5.8 -0.7 63 +7  1020.9  -0.6  753  297           
15 20.01.18 тихо ()   20000 м    3/3 600 м 
[Sc]
+1 -1.7 82 +1  1020.6  -0.6  752  302    +7.5       
18 20.01.18 200 (Ю) 20000 м    4/4 600 м 
[Sc]
-0.8 -1.5 95 1019.7  -1  751  304           
21 20.01.18 120 (ЮВ) 20000 м    4/4 600 м 
[Sc]
+1.1 -2.3 78 +2  1017.3  -2.3  750  301           
00 21.01.18 110 (В) 20000 м    8/8 600 м 
[Sc]
+1.6 -1.4 80 +1  1015.9  -1.3  749  300           
03 21.01.18 120 (ЮВ) 10 км    10/10 300 м 
[St]
-0.3 -1.1 94 -1  1015.2  -0.8  748  302  -1.4      сухой снег
50-90% 
06 21.01.18 120 (ЮВ) 10 км    10/10 300 м 
[St]
+0.3 -0.6 94 -1  1014.7  -0.5  748  301           
09 21.01.18 110 (В) 20000 м    9/8 600 м верхняя 
[Sc|Ci fib]
+0.7 -1.3 86 -2  1012.9  -1.7  746  300           
12 21.01.18 060 (СВ) 20000 м    8/8 600 м 
[Sc]
+1.8 -1.5 79 +3  1013.6  0.7  747  299           
15 21.01.18 110 (В) 20000 м    ясно 
-0.6 -2.3 88 -1  1015.7  1.9  748  302    +3.6       
18 21.01.18 тихо ()   20000 м    ясно 
-2.1 -2.7 96 -2  1017.2  1.4  749  305           
21 21.01.18 030 (СВ) 20000 м    9/9 600 м 
[Sc]
-2.1 -2.6 96 -2  1018.6  1.3  751  305           
00 22.01.18 110 (В) 8000 м    10/0 
[Sc]
+0 -0.4 97 -1  1017.9  -0.6  750  302           
03 22.01.18 120 (ЮВ) 2000 м  дымка  10/10 100 м 
[St]
-0.9 -1 99 -2  1016.1  -1.8  749  303  -2.6         
06 22.01.18 100 (В) 4000 м  дымка  10/10 200 м 
[St]
-1.2 -1.8 96 -1  1015.5  -0.6  748  303           
09 22.01.18 090 (В) 4000 м  дымка  10/10 200 м 
[St]
-0 -1.1 92 -2  1012.7  -2.7  746  301           
12 22.01.18 100 (В) 4000 м  дымка  10/10 200 м 
[St]
+0.3 -0.9 92 1011.5  -1.2  745  300           
15 22.01.18 060 (СВ) 4000 м  дымка  10/10 100 м 
[St]
+0.3 -0.3 96 1011.8  0.3  746  300    +0.8       
18 22.01.18 080 (В) 4000 м  слаб. морось  10/10 100 м 
[St]
+0.3 -0.2 96 1011.9  0.1  746  300           
21 22.01.18 100 (В) 4000 м  дымка{морось}  10/10 100 м 
[St]
+0.6 -0.1 95 +1  1011  -0.8  745  300           
00 23.01.18 080 (В) 4000 м  дымка{морось}  10/10 200 м 
[St]
+0.6 -0.3 94 +1  1010.7  -0.4  745  299           
03 23.01.18 120 (ЮВ) 4000 м  дымка  10/10 200 м 
[St]
-0.1 -0.9 94 -1  1010  -0.7  744  300  -0.1    0.0     
06 23.01.18 110 (В) 4000 м  дымка  10/10 200 м 
[St]
-0.1 -0.6 96 -2  1010  744  300  -0.3         
09 23.01.18 110 (В) 20000 м    9/9 300 м 
[Sc]
+2.5 +0.2 85 +2  1009.8  744  297           
Время (UTC), дата Ветер
(°,м/с) 
Видим.   Явления Облачность Т
(°С)
Тd
(°С)
f(%) Тe
(°С)
Pmin
(гПа)
dP
(гПа)
Po
(мм)
O2
(г/м3)
Тmin Tmax R s Состояние
почвы

Для получения пояснительной информации подведите курсор к названию столбца.

ПОГОДА в Светлограде - архив

Всё, что Вы хотите узнать о погоде в Светлограде - удобно и подробно!

Выберите нужную дату (начиная с 1 января 2015* года) и нажмите кнопку "Найти".
Будут отображены архивные сводки погоды по пункту Светлоград, начиная с указанной даты.


Отображать данные в формате CSV (для использования в таблицах Excel)


Внимание! Наш архив погоды предназначен исключительно для личного некоммерческого использования в познавательных целях. Если Вам необходимы официальные справки о состоянии погоды (для производственных, юридических, коммерческих и т.п. целей), обращайтесь в органы Росгидромета.

*Примечание: данная дата относится к архиву по метеостанциям СССР (Россия, СНГ, Балтия).
Архив по метеостанциям Зарубежной Европы и Азии (кроме Китая) хранится 10 дней, по другим регионам земного шара (Китай, Африка, Америка, Австралия, Океания) - 1 день.

Светлоград - район местоположения метеостанции


Название, широта, долгота, высота метеостанции:
Светлоград 45.3°ш. 42.9°д. 140 м над ур. моря [Российская Федерация]

Дополнительная информация

В oтличие oт бoльшинства пoгoдных сайтoв мы публикуем пoдрoбную метеoинфoрмацию в детальнoм прoфессиoнальнoм фoрмате.

Характеристики температуры и влажнoсти вoздуха измеряются на высoте 2 м в тени вдали oт зданий и деревьев.
Скoрoсть ветра измеряется на высoте 10 м (на урoвне рoста челoвека скoрoсть ветра ниже в 1.5-2 раза). Если метеoстанция нахoдится в гoрoде или в лесу, тo скoрoсть ветра занижена на 2-4 м/с пo сравнению с oткрытым местoм. Скoрoсть ветра над акватoриями крупных рек и oзёр, а также на вершинах хoлмoв на 2-5 м/с выше, чем в oбычных услoвиях.
Атмoсфернoе давление в разных тoчках местнoсти мoжет значительнo oтличаться oт давления на метеoстанции, в зависимoсти oт услoвий рельефа (при пoдъёме на 10 м давление пoнижается примернo на 1 мм рт.ст.).